Location: Boullarre
(49.1305°N, 3.0047°E)
Time: 19:46:12
(UTC+00:00)

CZ-4B DEB - Pass Details

Date: 03 October 2023
Orbit: 838 x 858 km, 99.0° (Epoch: 01 December)

Event Time Altitude Azimuth Distance (km) Brightness Sun altitude
Rises 20:11:49 0° 216° (SW) 3,383 7.4 -27.5°
Reaches altitude 10° 20:15:21 10° 240° (WSW) 2,453 6.9 -28.0°
Maximum altitude 20:18:15 14° 273° (W) 2,154 7.0 -28.5°
Drops below altitude 10° 20:21:09 10° 306° (NW) 2,462 7.6 -28.9°
Sets 20:24:44 0° 330° (NNW) 3,404 8.2 -29.4°
